| time (UTC) | temp F | wind direction | speed knots | gust knots | rain 1hr in | rain 24hr in | rain mn in | humidity % | barometer mb |
| 20260509034608 | 38 | 242 | 0.0 | 0.0 | 0.00 | 0.00 | 0.00 | 1011.9 | |
| 20260509034107 | 38 | 242 | 0.0 | 0.0 | 0.00 | 0.00 | 0.00 | 1012.2 | |
| 20260509033605 | 38 | 242 | 0.0 | 0.0 | 0.00 | 0.00 | 0.00 | 1012.2 | |
| 20260509033103 | 39 | 242 | 0.0 | 0.0 | 0.00 | 0.00 | 0.00 | 1012.2 | |
| 20260509032601 | 39 | 242 | 0.0 | 0.0 | 0.00 | 0.00 | 0.00 | 1012.2 | |
| 20260509032100 | 39 | 242 | 0.0 | 0.0 | 0.00 | 0.00 | 0.00 | 1012.2 | |
| 20260509031559 | 39 | 242 | 0.0 | 0.0 | 0.00 | 0.00 | 0.00 | 1012.2 | |
| 20260509031058 | 39 | 242 | 0.0 | 0.0 | 0.00 | 0.00 | 0.00 | 1012.2 | |
| 20260509030556 | 39 | 242 | 0.0 | 0.0 | 0.00 | 0.00 | 0.00 | 1012.2 | |
| 20260509030055 | 39 | 242 | 0.0 | 0.0 | 0.00 | 0.00 | 0.00 | 1012.2 | |
| 20260509025553 | 40 | 242 | 0.0 | 1.7 | 0.00 | 0.00 | 0.00 | 1012.2 | |
| 20260509025051 | 40 | 239 | 0.0 | 1.7 | 0.00 | 0.00 | 0.00 | 1012.2 | |
| 20260509024550 | 40 | 239 | 0.0 | 1.7 | 0.00 | 0.00 | 0.00 | 1012.2 | |
| 20260509024049 | 40 | 239 | 0.0 | 0.0 | 0.00 | 0.00 | 0.00 | 1012.2 | |
| 20260509023546 | 40 | 233 | 0.0 | 0.0 | 0.00 | 0.00 | 0.00 | 1012.2 | |
| 20260509023045 | 41 | 233 | 0.0 | 0.0 | 0.00 | 0.00 | 0.00 | 1012.2 | |
| 20260509022511 | 41 | 233 | 0.0 | 0.0 | 0.00 | 0.00 | 0.00 | 1012.2 | |
| 20260509022010 | 41 | 233 | 0.0 | 0.0 | 0.00 | 0.00 | 0.00 | 1011.9 | |
| 20260509021508 | 41 | 233 | 0.0 | 0.0 | 0.00 | 0.00 | 0.00 | 1011.9 | |
| 20260509021007 | 41 | 233 | 0.0 | 0.0 | 0.00 | 0.00 | 0.00 | 1011.9 | |
| 20260509020505 | 42 | 233 | 0.0 | 0.0 | 0.00 | 0.00 | 0.00 | 1011.9 | |
| 20260509015830 | 42 | 233 | 0.0 | 0.0 | 0.00 | 0.00 | 0.00 | 1011.9 | |
| 20260509015328 | 42 | 233 | 0.0 | 0.0 | 0.00 | 0.00 | 0.00 | 1011.9 | |
| 20260509014756 | 42 | 233 | 0.0 | 0.0 | 0.00 | 0.00 | 0.00 | 1011.9 | |
| 20260509014223 | 43 | 233 | 0.0 | 0.0 | 0.00 | 0.00 | 0.00 | 1011.5 | |
| 20260509013618 | 43 | 233 | 0.0 | 0.0 | 0.00 | 0.00 | 0.00 | 1011.5 | |
| 20260509013116 | 43 | 233 | 0.0 | 0.0 | 0.00 | 0.00 | 0.00 | 1011.5 | |
| 20260509012615 | 43 | 233 | 0.0 | 0.0 | 0.00 | 0.00 | 0.00 | 1011.5 | |
| 20260509012114 | 44 | 233 | 0.0 | 0.0 | 0.00 | 0.00 | 0.00 | 1011.5 | |
| 20260509011613 | 44 | 233 | 0.0 | 0.0 | 0.00 | 0.00 | 0.00 | 1011.5 | |
| 20260509011112 | 44 | 233 | 0.0 | 0.0 | 0.00 | 0.00 | 0.00 | 1011.2 | |
| 20260509010610 | 45 | 233 | 0.0 | 0.0 | 0.00 | 0.00 | 0.00 | 1011.2 | |
| 20260509010109 | 45 | 233 | 0.0 | 0.0 | 0.00 | 0.00 | 0.00 | 1011.2 | |
| 20260509005607 | 45 | 233 | 0.0 | 0.0 | 0.00 | 0.00 | 0.00 | 1011.2 | |
| 20260509005106 | 46 | 233 | 0.0 | 0.0 | 0.00 | 0.00 | 0.00 | 1010.8 | |
| 20260509004605 | 46 | 233 | 0.0 | 0.0 | 0.00 | 0.00 | 0.00 | 1010.8 | |
| 20260509004102 | 47 | 233 | 0.0 | 0.0 | 0.00 | 0.00 | 0.00 | 1010.8 | |
| 20260509003601 | 47 | 233 | 0.0 | 0.0 | 0.00 | 0.00 | 0.00 | 1010.8 | |
| 20260509003059 | 47 | 233 | 0.0 | 0.0 | 0.00 | 0.00 | 0.00 | 1010.5 | |
| 20260509002558 | 48 | 233 | 0.0 | 0.0 | 0.00 | 0.00 | 0.00 | 1010.5 | |
| 20260509002057 | 49 | 233 | 0.0 | 0.0 | 0.00 | 0.00 | 0.00 | 1010.5 | |
| 20260509001556 | 49 | 233 | 0.0 | 0.0 | 0.00 | 0.00 | 0.00 | 1010.5 | |
| 20260509001052 | 50 | 233 | 0.0 | 2.6 | 0.00 | 0.00 | 0.00 | 1010.5 | |
| 20260509000551 | 50 | 233 | 0.0 | 2.6 | 0.00 | 0.00 | 0.00 | 1010.5 | |
| 20260509000050 | 51 | 233 | 0.0 | 0.0 | 0.00 | 0.00 | 0.00 | 1010.5 | |
| 20260508235549 | 52 | 233 | 0.0 | 0.0 | 0.00 | 0.00 | 0.00 | 1010.5 | |
| 20260508235047 | 52 | 233 | 0.0 | 0.0 | 0.00 | 0.00 | 0.00 | 1010.5 | |
| 20260508234546 | 52 | 233 | 0.0 | 2.6 | 0.00 | 0.00 | 0.00 | 1010.5 | |
| 20260508234044 | 53 | 233 | 0.0 | 3.5 | 0.00 | 0.00 | 0.00 | 1010.5 | |
| 20260508233543 | 53 | 233 | 0.9 | 3.5 | 0.00 | 0.00 | 0.00 | 1010.5 | |
| 20260508233040 | 53 | 276 | 1.7 | 5.2 | 0.00 | 0.00 | 0.00 | 1010.5 | |
| 20260508232538 | 53 | 279 | 0.9 | 5.2 | 0.00 | 0.00 | 0.00 | 1010.5 | |
| 20260508232036 | 53 | 263 | 1.7 | 5.2 | 0.00 | 0.00 | 0.00 | 1010.2 | |
| 20260508231535 | 54 | 264 | 1.7 | 5.2 | 0.00 | 0.00 | 0.00 | 1010.2 | |
| 20260508231032 | 54 | 259 | 0.0 | 3.5 | 0.00 | 0.00 | 0.00 | 1010.2 | |
| 20260508230531 | 54 | 259 | 0.0 | 3.5 | 0.00 | 0.00 | 0.00 | 1010.2 | |
| 20260508230030 | 54 | 254 | 0.9 | 6.1 | 0.00 | 0.00 | 0.00 | 1010.2 | |
| 20260508225529 | 54 | 272 | 1.7 | 6.1 | 0.00 | 0.00 | 0.00 | 1010.2 | |
| 20260508225028 | 54 | 289 | 0.9 | 6.1 | 0.00 | 0.00 | 0.00 | 1010.2 | |
| 20260508224525 | 54 | 272 | 0.9 | 6.1 | 0.00 | 0.00 | 0.00 | 1010.2 | |
| 20260508224022 | 54 | 301 | 2.6 | 6.1 | 0.00 | 0.00 | 0.00 | 1010.2 | |
| 20260508223521 | 54 | 249 | 2.6 | 6.1 | 0.00 | 0.00 | 0.00 | 1010.2 | |
| 20260508223019 | 54 | 288 | 0.9 | 8.7 | 0.00 | 0.00 | 0.00 | 1010.2 | |
| 20260508222517 | 54 | 289 | 1.7 | 10.4 | 0.00 | 0.00 | 0.00 | 1010.2 | |
| 20260508222015 | 54 | 265 | 7.0 | 10.4 | 0.00 | 0.00 | 0.00 | 1010.2 | |
| 20260508221515 | 54 | 261 | 3.5 | 6.1 | 0.00 | 0.00 | 0.00 | 1010.2 | |
| 20260508221013 | 54 | 270 | 2.6 | 10.4 | 0.00 | 0.00 | 0.00 | 1010.2 | |
| 20260508220440 | 54 | 268 | 2.6 | 10.4 | 0.00 | 0.00 | 0.00 | 1010.2 | |
| 20260508215939 | 54 | 270 | 5.2 | 10.4 | 0.00 | 0.00 | 0.00 | 1010.2 | |
| 20260508215406 | 54 | 249 | 2.6 | 7.8 | 0.00 | 0.00 | 0.00 | 1010.2 | |
| 20260508214905 | 53 | 264 | 3.5 | 7.8 | 0.00 | 0.00 | 0.00 | 1010.2 | |
| 20260508214404 | 53 | 271 | 4.3 | 7.8 | 0.00 | 0.00 | 0.00 | 1010.2 | |
| 20260508213901 | 53 | 311 | 1.7 | 10.4 | 0.00 | 0.00 | 0.00 | 1010.2 | |
| 20260508213359 | 53 | 278 | 1.7 | 10.4 | 0.00 | 0.00 | 0.00 | 1010.2 | |
| 20260508212857 | 53 | 280 | 2.6 | 13.0 | 0.00 | 0.00 | 0.00 | 1010.2 | |
| 20260508212356 | 53 | 267 | 2.6 | 13.0 | 0.00 | 0.00 | 0.00 | 1010.2 | |
| 20260508211854 | 54 | 283 | 3.5 | 10.4 | 0.00 | 0.00 | 0.00 | 1010.2 | |
| 20260508211352 | 54 | 287 | 0.9 | 10.4 | 0.00 | 0.00 | 0.00 | 1010.2 | |
| 20260508210850 | 54 | 291 | 1.7 | 10.4 | 0.00 | 0.00 | 0.00 | 1010.2 | |
| 20260508210347 | 54 | 254 | 3.5 | 7.8 | 0.00 | 0.00 | 0.00 | 1010.2 | |
| 20260508205845 | 54 | 264 | 3.5 | 7.8 | 0.00 | 0.00 | 0.00 | 1010.2 | |
| 20260508205344 | 53 | 284 | 3.5 | 8.7 | 0.00 | 0.00 | 0.00 | 1010.2 | |
| 20260508204842 | 52 | 216 | 0.9 | 8.7 | 0.00 | 0.00 | 0.00 | 1009.8 | |
| 20260508204310 | 52 | 249 | 3.5 | 8.7 | 0.00 | 0.00 | 0.00 | 1009.8 | |
| 20260508203808 | 52 | 1 | 3.5 | 11.3 | 0.00 | 0.00 | 0.00 | 1010.2 | |
| 20260508203306 | 52 | 327 | 1.7 | 11.3 | 0.00 | 0.00 | 0.00 | 1010.2 | |
| 20260508202804 | 51 | 320 | 2.6 | 11.3 | 0.00 | 0.00 | 0.00 | 1010.2 | |
| 20260508202306 | 51 | 279 | 2.6 | 8.7 | 0.00 | 0.00 | 0.00 | 1010.2 | |
| 20260508201801 | 52 | 341 | 3.5 | 10.4 | 0.00 | 0.00 | 0.00 | 1010.2 | |
| 20260508201229 | 52 | 5 | 2.6 | 15.6 | 0.00 | 0.00 | 0.00 | 1010.2 | |
| 20260508200728 | 54 | 0 | 4.3 | 15.6 | 0.00 | 0.00 | 0.00 | 1010.2 | |
| 20260508200227 | 55 | 334 | 2.6 | 11.3 | 0.00 | 0.00 | 0.00 | 1010.2 | |
| 20260508195725 | 55 | 294 | 3.5 | 15.6 | 0.00 | 0.00 | 0.00 | 1009.8 | |
| 20260508195222 | 55 | 257 | 3.5 | 15.6 | 0.00 | 0.00 | 0.00 | 1009.5 | |
| 20260508194546 | 55 | 225 | 7.8 | 15.6 | 0.00 | 0.00 | 0.00 | 1009.5 | |
| 20260508194045 | 56 | 230 | 3.5 | 13.9 | 0.00 | 0.00 | 0.00 | 1009.5 | |
| 20260508193543 | 56 | 216 | 5.2 | 16.5 | 0.00 | 0.00 | 0.00 | 1009.5 | |
| 20260508193042 | 56 | 262 | 7.8 | 16.5 | 0.00 | 0.00 | 0.00 | 1009.5 | |
| 20260508192439 | 56 | 275 | 3.5 | 13.9 | 0.00 | 0.00 | 0.00 | 1009.5 | |
| 20260508191938 | 55 | 266 | 7.8 | 13.9 | 0.00 | 0.00 | 0.00 | 1009.5 | |
| 20260508191437 | 54 | 262 | 4.3 | 13.9 | 0.00 | 0.00 | 0.00 | 1009.5 | |
| 20260508190936 | 54 | 288 | 5.2 | 13.9 | 0.00 | 0.00 | 0.00 | 1009.5 | |
| 20260508190433 | 54 | 271 | 3.5 | 11.3 | 0.00 | 0.00 | 0.00 | 1009.5 | |
| 20260508185932 | 55 | 279 | 2.6 | 13.0 | 0.00 | 0.00 | 0.00 | 1009.5 | |
| 20260508185431 | 55 | 270 | 3.5 | 13.0 | 0.00 | 0.00 | 0.00 | 1009.8 | |
| 20260508184929 | 55 | 265 | 7.0 | 13.0 | 0.00 | 0.00 | 0.00 | 1009.8 | |
| 20260508184356 | 56 | 214 | 3.5 | 8.7 | 0.00 | 0.00 | 0.00 | 1009.8 | |
| 20260508183854 | 56 | 225 | 3.5 | 10.4 | 0.00 | 0.00 | 0.00 | 1009.8 | |
| 20260508183352 | 57 | 260 | 3.5 | 10.4 | 0.00 | 0.00 | 0.00 | 1009.8 | |
| 20260508182818 | 57 | 235 | 5.2 | 13.0 | 0.00 | 0.00 | 0.00 | 1009.8 | |
| 20260508182317 | 56 | 264 | 2.6 | 13.0 | 0.00 | 0.00 | 0.00 | 1009.8 | |
| 20260508181713 | 57 | 275 | 6.1 | 13.0 | 0.00 | 0.00 | 0.00 | 1009.8 | |
| 20260508181211 | 57 | 249 | 4.3 | 8.7 | 0.00 | 0.00 | 0.00 | 1009.8 | |
| 20260508180703 | 57 | 280 | 5.2 | 10.4 | 0.00 | 0.00 | 0.00 | 1009.8 | |
| 20260508180200 | 56 | 220 | 4.3 | 15.6 | 0.00 | 0.00 | 0.00 | 1009.8 | |
| 20260508175657 | 56 | 272 | 6.1 | 15.6 | 0.00 | 0.00 | 0.00 | 1009.8 | |
| 20260508175123 | 56 | 283 | 5.2 | 13.0 | 0.00 | 0.00 | 0.00 | 1010.2 | |
| 20260508174622 | 56 | 261 | 3.5 | 13.9 | 0.00 | 0.00 | 0.00 | 1009.8 | |
| 20260508174121 | 56 | 270 | 5.2 | 13.9 | 0.00 | 0.00 | 0.00 | 1010.2 | |
| 20260508173620 | 56 | 243 | 6.1 | 17.4 | 0.00 | 0.00 | 0.00 | 1009.8 | |
| 20260508173119 | 56 | 247 | 6.1 | 17.4 | 0.00 | 0.00 | 0.00 | 1010.2 | |
| 20260508172617 | 56 | 241 | 6.1 | 13.0 | 0.00 | 0.00 | 0.00 | 1010.2 | |
| 20260508172116 | 56 | 289 | 3.5 | 11.3 | 0.00 | 0.00 | 0.00 | 1010.2 | |
| 20260508171615 | 56 | 221 | 5.2 | 16.5 | 0.00 | 0.00 | 0.00 | 1010.2 | |
| 20260508171113 | 56 | 287 | 3.5 | 17.4 | 0.00 | 0.00 | 0.00 | 1010.2 | |
| 20260508170612 | 57 | 286 | 8.7 | 17.4 | 0.00 | 0.00 | 0.00 | 1010.2 | |
| 20260508170110 | 57 | 225 | 5.2 | 13.9 | 0.00 | 0.00 | 0.00 | 1009.8 | |
| 20260508165609 | 57 | 271 | 5.2 | 13.9 | 0.00 | 0.00 | 0.00 | 1009.8 | |
| 20260508165035 | 58 | 267 | 3.5 | 11.3 | 0.00 | 0.00 | 0.00 | 1010.2 | |
| 20260508164534 | 58 | 271 | 7.0 | 11.3 | 0.00 | 0.00 | 0.00 | 1010.2 | |
| 20260508164031 | 57 | 240 | 2.6 | 17.4 | 0.00 | 0.00 | 0.00 | 1010.2 | |
| 20260508163458 | 57 | 236 | 3.5 | 17.4 | 0.00 | 0.00 | 0.00 | 1010.2 | |
| 20260508162957 | 57 | 259 | 3.5 | 11.3 | 0.00 | 0.00 | 0.00 | 1010.2 | |
| 20260508162456 | 56 | 249 | 4.3 | 16.5 | 0.00 | 0.00 | 0.00 | 1010.2 | |
| 20260508161955 | 55 | 248 | 5.2 | 16.5 | 0.00 | 0.00 | 0.00 | 1010.2 | |
| 20260508161423 | 55 | 268 | 7.0 | 16.5 | 0.00 | 0.00 | 0.00 | 1010.2 | |
| 20260508160921 | 54 | 262 | 5.2 | 13.0 | 0.00 | 0.00 | 0.00 | 1010.2 | |
| 20260508160420 | 54 | 249 | 5.2 | 11.3 | 0.00 | 0.00 | 0.00 | 1010.2 | |
| 20260508155918 | 54 | 237 | 5.2 | 15.6 | 0.00 | 0.00 | 0.00 | 1010.5 | |
| 20260508155416 | 54 | 248 | 1.7 | 16.5 | 0.00 | 0.00 | 0.00 | 1010.5 | |
| 20260508154913 | 54 | 279 | 7.0 | 16.5 | 0.00 | 0.00 | 0.00 | 1010.5 | |
| 20260508154413 | 54 | 288 | 4.3 | 16.5 | 0.00 | 0.00 | 0.00 | 1010.5 | |
| 20260508153910 | 54 | 272 | 5.2 | 10.4 | 0.00 | 0.00 | 0.00 | 1010.2 | |
| 20260508153409 | 54 | 240 | 5.2 | 13.9 | 0.00 | 0.00 | 0.00 | 1010.2 | |
| 20260508152906 | 54 | 276 | 3.5 | 13.9 | 0.00 | 0.00 | 0.00 | 1010.2 | |
| 20260508152403 | 55 | 270 | 7.8 | 13.9 | 0.00 | 0.00 | 0.00 | 1010.2 | |
| 20260508151800 | 55 | 271 | 6.1 | 13.0 | 0.00 | 0.00 | 0.00 | 1010.2 | |
| 20260508151259 | 55 | 317 | 3.5 | 13.0 | 0.00 | 0.00 | 0.00 | 1010.2 | |
| 20260508150757 | 55 | 281 | 5.2 | 13.0 | 0.00 | 0.00 | 0.00 | 1010.2 | |
| 20260508150255 | 55 | 276 | 6.1 | 13.0 | 0.00 | 0.00 | 0.00 | 1010.2 | |
| 20260508145752 | 54 | 320 | 3.5 | 11.3 | 0.00 | 0.00 | 0.00 | 1010.2 | |
| 20260508145251 | 53 | 272 | 1.7 | 7.8 | 0.00 | 0.00 | 0.00 | 1010.2 | |
| 20260508144749 | 53 | 245 | 3.5 | 8.7 | 0.00 | 0.00 | 0.00 | 1010.2 | |
| 20260508144248 | 53 | 245 | 2.6 | 8.7 | 0.00 | 0.00 | 0.00 | 1010.2 | |
| 20260508143745 | 54 | 216 | 3.5 | 10.4 | 0.00 | 0.00 | 0.00 | 1010.2 | |
| 20260508143244 | 54 | 296 | 1.7 | 10.4 | 0.00 | 0.00 | 0.00 | 1010.2 | |
| 20260508142742 | 54 | 272 | 5.2 | 10.4 | 0.00 | 0.00 | 0.00 | 1010.2 | |
| 20260508142242 | 54 | 270 | 4.3 | 8.7 | 0.00 | 0.00 | 0.00 | 1010.2 | |
| 20260508141739 | 54 | 209 | 2.6 | 10.4 | 0.00 | 0.00 | 0.00 | 1010.2 | |
| 20260508141238 | 54 | 234 | 2.6 | 10.4 | 0.00 | 0.00 | 0.00 | 1010.2 | |
| 20260508140704 | 54 | 326 | 3.5 | 10.4 | 0.00 | 0.00 | 0.00 | 1010.5 | |
| 20260508140203 | 54 | 355 | 1.7 | 8.7 | 0.00 | 0.00 | 0.00 | 1010.5 | |
| 20260508135558 | 54 | 261 | 1.7 | 13.0 | 0.00 | 0.00 | 0.00 | 1010.2 | |
| 20260508135057 | 53 | 279 | 3.5 | 13.0 | 0.00 | 0.00 | 0.00 | 1010.5 | |
| 20260508134552 | 53 | 266 | 3.5 | 8.7 | 0.00 | 0.00 | 0.00 | 1010.5 | |
| 20260508134051 | 53 | 251 | 4.3 | 10.4 | 0.00 | 0.00 | 0.00 | 1010.5 | |
| 20260508133550 | 53 | 236 | 3.5 | 10.4 | 0.00 | 0.00 | 0.00 | 1010.5 | |
| 20260508133017 | 52 | 297 | 1.7 | 8.7 | 0.00 | 0.00 | 0.00 | 1010.5 | |
| 20260508132515 | 52 | 305 | 3.5 | 13.9 | 0.00 | 0.00 | 0.00 | 1010.5 | |
| 20260508132014 | 52 | 258 | 6.1 | 13.9 | 0.00 | 0.00 | 0.00 | 1010.5 | |
| 20260508131441 | 52 | 278 | 5.2 | 11.3 | 0.00 | 0.00 | 0.00 | 1010.5 | |
| 20260508130940 | 52 | 266 | 3.5 | 13.0 | 0.00 | 0.00 | 0.00 | 1010.5 | |
| 20260508130405 | 51 | 299 | 1.7 | 13.0 | 0.00 | 0.00 | 0.00 | 1010.5 | |
| 20260508125904 | 51 | 262 | 5.2 | 13.0 | 0.00 | 0.00 | 0.00 | 1010.5 | |
| 20260508125403 | 50 | 252 | 3.5 | 7.8 | 0.00 | 0.00 | 0.00 | 1010.5 | |
| 20260508124900 | 49 | 297 | 0.9 | 10.4 | 0.00 | 0.00 | 0.00 | 1010.5 | |
| 20260508124357 | 49 | 273 | 4.3 | 10.4 | 0.00 | 0.00 | 0.00 | 1010.5 | |
| 20260508123856 | 48 | 265 | 3.5 | 10.4 | 0.00 | 0.00 | 0.00 | 1010.5 | |
| 20260508123323 | 47 | 255 | 5.2 | 11.3 | 0.00 | 0.00 | 0.00 | 1010.5 | |
| 20260508122821 | 47 | 254 | 2.6 | 11.3 | 0.00 | 0.00 | 0.00 | 1010.5 | |
| 20260508122320 | 46 | 258 | 3.5 | 11.3 | 0.00 | 0.00 | 0.00 | 1010.5 | |
| 20260508121819 | 46 | 286 | 1.7 | 7.8 | 0.00 | 0.00 | 0.00 | 1010.5 | |
| 20260508121317 | 45 | 252 | 2.6 | 7.8 | 0.00 | 0.00 | 0.00 | 1010.5 | |
| 20260508120815 | 45 | 288 | 3.5 | 7.8 | 0.00 | 0.00 | 0.00 | 1010.8 | |
| 20260508120313 | 45 | 254 | 3.5 | 7.8 | 0.00 | 0.00 | 0.00 | 1010.8 | |
| 20260508115740 | 45 | 271 | 3.5 | 7.8 | 0.00 | 0.00 | 0.00 | 1010.5 | |
| 20260508115238 | 45 | 267 | 2.6 | 7.8 | 0.00 | 0.00 | 0.00 | 1010.5 | |
| 20260508114737 | 45 | 288 | 1.7 | 7.8 | 0.00 | 0.00 | 0.00 | 1010.5 | |
| 20260508114205 | 44 | 263 | 1.7 | 7.8 | 0.00 | 0.00 | 0.00 | 1010.5 | |
| 20260508113704 | 44 | 189 | 1.7 | 5.2 | 0.00 | 0.00 | 0.00 | 1010.5 | |
| 20260508113201 | 44 | 278 | 0.9 | 6.1 | 0.00 | 0.00 | 0.00 | 1010.8 | |
| 20260508112659 | 44 | 272 | 1.7 | 6.1 | 0.00 | 0.00 | 0.00 | 1010.8 | |
| 20260508112158 | 44 | 247 | 2.6 | 6.1 | 0.00 | 0.00 | 0.00 | 1010.5 | |
| 20260508111657 | 44 | 274 | 3.5 | 8.7 | 0.00 | 0.00 | 0.00 | 1010.5 | |
| 20260508111155 | 44 | 273 | 2.6 | 8.7 | 0.00 | 0.00 | 0.00 | 1010.5 | |
| 20260508110653 | 44 | 261 | 3.5 | 6.1 | 0.00 | 0.00 | 0.00 | 1010.5 | |
| 20260508110151 | 43 | 262 | 2.6 | 6.1 | 0.00 | 0.00 | 0.00 | 1010.5 | |
| 20260508105650 | 43 | 285 | 1.7 | 6.1 | 0.00 | 0.00 | 0.00 | 1010.2 | |
| 20260508105148 | 43 | 292 | 0.9 | 7.8 | 0.00 | 0.00 | 0.00 | 1010.2 | |
| 20260508104646 | 43 | 260 | 2.6 | 7.8 | 0.00 | 0.00 | 0.00 | 1010.2 | |
| 20260508104143 | 43 | 253 | 3.5 | 6.1 | 0.00 | 0.00 | 0.00 | 1010.2 | |
| 20260508103642 | 43 | 304 | 1.7 | 6.1 | 0.00 | 0.00 | 0.00 | 1010.2 | |
| 20260508103107 | 43 | 253 | 0.9 | 8.7 | 0.00 | 0.00 | 0.00 | 1010.2 | |
| 20260508102605 | 43 | 260 | 2.6 | 10.4 | 0.00 | 0.00 | 0.00 | 1010.2 | |
| 20260508102101 | 43 | 296 | 4.3 | 10.4 | 0.00 | 0.00 | 0.00 | 1009.8 | |
| 20260508101529 | 42 | 262 | 3.5 | 8.7 | 0.00 | 0.00 | 0.00 | 1010.2 | |
| 20260508101029 | 42 | 253 | 1.7 | 6.1 | 0.00 | 0.00 | 0.00 | 1009.8 | |
| 20260508100527 | 42 | 274 | 3.5 | 7.8 | 0.00 | 0.00 | 0.00 | 1009.8 | |
| 20260508100026 | 42 | 263 | 1.7 | 7.8 | 0.00 | 0.00 | 0.00 | 1009.8 | |
| 20260508095525 | 42 | 272 | 3.5 | 7.8 | 0.00 | 0.00 | 0.00 | 1009.8 | |
| 20260508095023 | 42 | 270 | 2.6 | 7.8 | 0.00 | 0.00 | 0.00 | 1009.5 | |
| 20260508094522 | 42 | 271 | 2.6 | 7.8 | 0.00 | 0.00 | 0.00 | 1009.5 | |
| 20260508093950 | 42 | 288 | 2.6 | 6.1 | 0.00 | 0.00 | 0.00 | 1009.5 | |
| 20260508093449 | 41 | 301 | 2.6 | 5.2 | 0.00 | 0.00 | 0.00 | 1009.5 | |
| 20260508092948 | 41 | 257 | 1.7 | 5.2 | 0.00 | 0.00 | 0.00 | 1009.5 | |
| 20260508092446 | 41 | 248 | 0.9 | 5.2 | 0.00 | 0.00 | 0.00 | 1009.5 | |
| 20260508091944 | 41 | 244 | 0.9 | 2.6 | 0.00 | 0.00 | 0.00 | 1009.5 | |
| 20260508091442 | 41 | 244 | 0.0 | 2.6 | 0.00 | 0.00 | 0.00 | 1009.5 | |
| 20260508090941 | 40 | 244 | 0.0 | 2.6 | 0.00 | 0.00 | 0.00 | 1009.5 | |
| 20260508090407 | 40 | 244 | 0.0 | 2.6 | 0.00 | 0.00 | 0.00 | 1009.5 | |
| 20260508085904 | 40 | 244 | 0.0 | 0.0 | 0.00 | 0.00 | 0.00 | 1009.1 | |
| 20260508085403 | 40 | 244 | 0.0 | 0.0 | 0.00 | 0.00 | 0.00 | 1009.1 | |
| 20260508084901 | 41 | 244 | 0.0 | 1.7 | 0.00 | 0.00 | 0.00 | 1009.1 | |
| 20260508084359 | 41 | 244 | 0.0 | 1.7 | 0.00 | 0.00 | 0.00 | 1009.1 | |
| 20260508083858 | 41 | 253 | 0.0 | 0.0 | 0.00 | 0.00 | 0.00 | 1009.1 | |
| 20260508083355 | 41 | 246 | 0.0 | 0.0 | 0.00 | 0.00 | 0.00 | 1009.1 | |
| 20260508082854 | 41 | 246 | 0.0 | 0.0 | 0.00 | 0.00 | 0.00 | 1009.1 | |
| 20260508082352 | 40 | 246 | 0.0 | 0.0 | 0.00 | 0.00 | 0.00 | 1009.1 | |
| 20260508081849 | 40 | 246 | 0.0 | 0.0 | 0.00 | 0.00 | 0.00 | 1009.1 | |
| 20260508081347 | 40 | 246 | 0.0 | 0.0 | 0.00 | 0.00 | 0.00 | 1009.1 | |
| 20260508080846 | 40 | 246 | 0.0 | 0.0 | 0.00 | 0.00 | 0.00 | 1009.1 | |
| 20260508080344 | 40 | 246 | 0.0 | 0.0 | 0.00 | 0.00 | 0.00 | 1009.1 | |
| 20260508075843 | 40 | 246 | 0.0 | 0.0 | 0.00 | 0.00 | 0.00 | 1009.1 | |
| 20260508075311 | 40 | 246 | 0.0 | 0.0 | 0.00 | 0.00 | 0.00 | 1009.1 | |
| 20260508074809 | 40 | 246 | 0.0 | 0.0 | 0.00 | 0.00 | 0.00 | 1009.1 | |
| 20260508074307 | 40 | 246 | 0.0 | 1.7 | 0.00 | 0.00 | 0.00 | 1009.1 | |
| 20260508073805 | 40 | 253 | 0.0 | 1.7 | 0.00 | 0.00 | 0.00 | 1008.8 | |
| 20260508073304 | 40 | 274 | 0.0 | 2.6 | 0.00 | 0.00 | 0.00 | 1008.8 | |
| 20260508072730 | 40 | 274 | 0.0 | 2.6 | 0.00 | 0.00 | 0.00 | 1008.8 | |
| 20260508072229 | 40 | 274 | 0.9 | 3.5 | 0.00 | 0.00 | 0.00 | 1009.1 | |
| 20260508071727 | 40 | 274 | 0.9 | 3.5 | 0.00 | 0.00 | 0.00 | 1009.1 | |
| 20260508071226 | 40 | 274 | 1.7 | 3.5 | 0.00 | 0.00 | 0.00 | 1009.1 | |
| 20260508070725 | 40 | 274 | 0.0 | 3.5 | 0.00 | 0.00 | 0.00 | 1009.1 | |
| 20260508070223 | 40 | 274 | 1.7 | 3.5 | 0.00 | 0.00 | 0.00 | 1009.1 | |
| 20260508065651 | 39 | 274 | 2.6 | 3.5 | 0.00 | 0.00 | 0.00 | 1008.8 | |
| 20260508065151 | 39 | 274 | 0.9 | 3.5 | 0.00 | 0.00 | 0.00 | 1008.8 | |
| 20260508064649 | 39 | 278 | 0.9 | 2.6 | 0.00 | 0.00 | 0.00 | 1008.8 | |
| 20260508064148 | 39 | 263 | 0.9 | 5.2 | 0.00 | 0.00 | 0.00 | 1008.8 | |
| 20260508063645 | 39 | 290 | 0.0 | 5.2 | 0.00 | 0.00 | 0.00 | 1008.8 | |
| 20260508063144 | 38 | 290 | 0.9 | 5.2 | 0.00 | 0.00 | 0.00 | 1008.8 | |
| 20260508062643 | 38 | 290 | 1.7 | 5.2 | 0.00 | 0.00 | 0.00 | 1008.8 | |
| 20260508062110 | 38 | 290 | 1.7 | 6.1 | 0.00 | 0.00 | 0.00 | 1009.1 | |
| 20260508061609 | 37 | 291 | 2.6 | 6.1 | 0.00 | 0.00 | 0.00 | 1008.8 | |
| 20260508061108 | 37 | 256 | 1.7 | 3.5 | 0.00 | 0.00 | 0.00 | 1009.1 | |
| 20260508060535 | 36 | 256 | 0.0 | 0.0 | 0.00 | 0.00 | 0.00 | 1009.1 | |
| 20260508060033 | 37 | 256 | 0.0 | 2.6 | 0.00 | 0.00 | 0.00 | 1009.1 | |
| 20260508055532 | 37 | 256 | 0.0 | 2.6 | 0.00 | 0.00 | 0.00 | 1009.1 | |
| 20260508055029 | 37 | 256 | 1.7 | 2.6 | 0.00 | 0.00 | 0.00 | 1009.1 | |
| 20260508054528 | 37 | 256 | 0.9 | 2.6 | 0.00 | 0.00 | 0.00 | 1009.1 | |
| 20260508054027 | 37 | 257 | 0.0 | 1.7 | 0.00 | 0.00 | 0.00 | 1009.1 | |
| 20260508053526 | 37 | 264 | 0.0 | 1.7 | 0.00 | 0.00 | 0.00 | 1009.1 | |
| 20260508053023 | 37 | 264 | 0.0 | 0.0 | 0.00 | 0.00 | 0.00 | 1009.1 | |
| 20260508052522 | 37 | 264 | 0.0 | 0.0 | 0.00 | 0.00 | 0.00 | 1009.1 | |
| 20260508051950 | 37 | 264 | 0.0 | 0.0 | 0.00 | 0.00 | 0.00 | 1009.1 | |
| 20260508051448 | 38 | 264 | 0.0 | 2.6 | 0.00 | 0.00 | 0.00 | 1009.1 | |
| 20260508050947 | 38 | 264 | 0.0 | 2.6 | 0.00 | 0.00 | 0.00 | 1009.1 | |
| 20260508050445 | 38 | 264 | 0.0 | 2.6 | 0.00 | 0.00 | 0.00 | 1009.1 | |
| 20260508045944 | 38 | 264 | 1.7 | 2.6 | 0.00 | 0.00 | 0.00 | 1009.1 | |
| 20260508045443 | 38 | 264 | 0.0 | 0.0 | 0.00 | 0.00 | 0.00 | 1009.1 | |
| 20260508044942 | 38 | 264 | 0.0 | 0.0 | 0.00 | 0.00 | 0.00 | 1009.1 | |
| 20260508044440 | 38 | 264 | 0.0 | 0.0 | 0.00 | 0.00 | 0.00 | 1009.1 | |
| 20260508043805 | 39 | 339 | 0.0 | 0.0 | 0.00 | 0.00 | 0.00 | 1009.1 | |
| 20260508043303 | 39 | 333 | 0.0 | 0.0 | 0.00 | 0.00 | 0.00 | 1008.8 | |
| 20260508042801 | 39 | 343 | 0.0 | 0.0 | 0.00 | 0.00 | 0.00 | 1008.8 | |
| 20260508042259 | 40 | 343 | 0.0 | 0.0 | 0.00 | 0.00 | 0.00 | 1008.8 | |
| 20260508041757 | 40 | 343 | 0.0 | 0.0 | 0.00 | 0.00 | 0.00 | 1009.1 | |
| 20260508041255 | 40 | 343 | 0.0 | 0.0 | 0.00 | 0.00 | 0.00 | 1009.1 | |
| 20260508040754 | 41 | 343 | 0.0 | 0.0 | 0.00 | 0.00 | 0.00 | 1009.1 | |
| 20260508040253 | 41 | 343 | 0.0 | 0.0 | 0.00 | 0.00 | 0.00 | 1009.1 | |
| 20260508035615 | 41 | 343 | 0.0 | 0.0 | 0.00 | 0.00 | 0.00 | 1009.1 | |
| 20260508035113 | 42 | 343 | 0.0 | 0.0 | 0.00 | 0.00 | 0.00 | 1009.1 |